Weather History for KCIU - December, 2013

Change the Weather History Date:

Wednesday, December 4, 2013

  Actual Average Record
Temperature  
Mean Temperature 28 °F -  
Max Temperature 39 °F 33 °F 60 °F (1982)
Min Temperature 21 °F 18 °F 4 °F (1989)
Degree Days  
Heating Degree Days 37    
Moisture  
Dew Point 25 °F    
Average Humidity 97    
Maximum Humidity 100    
Minimum Humidity 86    
Precipitation  
Precipitation 0.37 in - - ()
Sea Level Pressure  
Sea Level Pressure 29.83 in    
Wind  
Wind Speed 16 mph (East)    
Max Wind Speed 33 mph    
Max Gust Speed 43 mph    
Visibility 6 miles    
Events      
Averages and records for this station are not official NWS values.
T = Trace of Precipitation, MM = Missing Value Source: NWS Daily Summary

Daily Weather History Graph

Daily Weather History Graph

Search for Another Location

Airport or City:

Trip Planner

Search our weather history database for the weather conditions in past years. The results will help you decide how hot, cold, wet, or windy it might be!

Date:

Astronomy

Dec. 04, 2013 Rise Set
Actual Time 8:03 AM EST 4:52 PM EST
Civil Twilight 7:29 AM EST 5:26 PM EST
Nautical Twilight 6:51 AM EST 6:04 PM EST
Astronomical Twilight 6:15 AM EST 6:40 PM EST
Moon 9:29 AM EST (12/4) 7:04 PM EST (12/4)
Length of Visible Light 9h 57m
Length of Day
8h 48m
Waxing Crescent, 4% of the Moon is Illuminated
Dec 4
Waxing Crescent
Dec 9
First Quarter
Dec 17
Full
Dec 25
Last Quarter
Jan 1
New

Hourly Weather History & Observations

Time (EST) Temp. Windchill Dew Point Humidity Pressure Visibility Wind Dir Wind Speed Gust Speed Precip Events Conditions
12:15 AM 21.2 °F 7.8 °F 21.2 °F 100% 29.97 in 2.5 mi ENE 15.0 mph - N/A   Overcast
12:35 AM 21.2 °F 8.3 °F 21.2 °F 100% 29.97 in 2.5 mi ENE 13.8 mph - N/A   Overcast
12:55 AM 21.2 °F 8.9 °F 21.2 °F 100% 29.97 in 3.0 mi ENE 12.7 mph - N/A   Overcast
1:15 AM 21.2 °F 8.9 °F 21.2 °F 100% 29.98 in 3.0 mi ENE 12.7 mph - N/A   Overcast
1:35 AM 21.2 °F 7.3 °F 21.2 °F 100% 29.97 in 2.0 mi ENE 16.1 mph - N/A   Overcast
1:55 AM 21.2 °F 7.3 °F 21.2 °F 100% 29.97 in 2.0 mi ENE 16.1 mph - N/A   Overcast
2:15 AM 21.2 °F 8.3 °F 21.2 °F 100% 29.98 in 2.5 mi ENE 13.8 mph - N/A   Overcast
2:35 AM 21.2 °F 6.8 °F 21.2 °F 100% 29.97 in 3.0 mi ENE 17.3 mph 21.9 mph N/A   Overcast
2:55 AM 21.2 °F 8.9 °F 21.2 °F 100% 29.99 in 4.0 mi ENE 12.7 mph - N/A   Mostly Cloudy
3:15 AM 21.2 °F 7.3 °F 21.2 °F 100% 29.98 in 3.0 mi ENE 16.1 mph - N/A   Overcast
3:35 AM 21.2 °F 8.3 °F 21.2 °F 100% 29.97 in 4.0 mi ENE 13.8 mph 19.6 mph N/A   Overcast
3:55 AM 21.2 °F 8.9 °F 19.4 °F 93% 29.98 in 5.0 mi ENE 12.7 mph 18.4 mph N/A   Overcast
4:15 AM 21.2 °F 7.3 °F 21.2 °F 100% 29.96 in 4.0 mi ENE 16.1 mph - N/A   Overcast
4:35 AM 21.2 °F 8.3 °F 19.4 °F 93% 29.97 in 3.0 mi ENE 13.8 mph - N/A   Overcast
4:55 AM 21.2 °F 8.9 °F 19.4 °F 93% 29.98 in 2.0 mi ENE 12.7 mph - N/A   Overcast
5:15 AM 21.2 °F 8.9 °F 19.4 °F 93% 29.98 in 2.0 mi ENE 12.7 mph - N/A   Overcast
5:35 AM 21.2 °F 7.8 °F 19.4 °F 93% 29.99 in 3.0 mi NE 15.0 mph - N/A   Overcast
5:55 AM 21.2 °F 7.8 °F 19.4 °F 93% 29.98 in 3.0 mi ENE 15.0 mph - N/A   Overcast
6:15 AM 21.2 °F 7.8 °F 19.4 °F 93% 29.97 in 5.0 mi ENE 15.0 mph - N/A   Overcast
6:35 AM 21.2 °F 7.8 °F 21.2 °F 100% 29.96 in 8.0 mi ENE 15.0 mph - N/A   Overcast
6:55 AM 21.2 °F 7.8 °F 21.2 °F 100% 29.97 in 10.0 mi ENE 15.0 mph - N/A   Overcast
7:15 AM 21.2 °F 8.3 °F 21.2 °F 100% 29.97 in 10.0 mi ENE 13.8 mph 18.4 mph N/A   Overcast
7:35 AM 21.2 °F 8.3 °F 21.2 °F 100% 29.97 in 10.0 mi East 13.8 mph - N/A   Overcast
7:55 AM 21.2 °F 8.9 °F 21.2 °F 100% 29.97 in 10.0 mi ENE 12.7 mph - N/A   Overcast
8:15 AM 23.0 °F 10.6 °F 21.2 °F 93% 29.96 in 10.0 mi ENE 13.8 mph - N/A   Overcast
8:35 AM 23.0 °F 10.1 °F 21.2 °F 93% 29.95 in 10.0 mi ENE 15.0 mph - N/A   Overcast
8:55 AM 23.0 °F 8.7 °F 21.2 °F 93% 29.94 in 10.0 mi East 18.4 mph - N/A   Overcast
9:15 AM 23.0 °F 10.1 °F 21.2 °F 93% 29.96 in 10.0 mi East 15.0 mph - N/A   Overcast
9:35 AM 23.0 °F 9.6 °F 21.2 °F 93% 29.95 in 7.0 mi ENE 16.1 mph - N/A   Overcast
9:55 AM 24.8 °F 13.4 °F 21.2 °F 86% 29.96 in 10.0 mi East 12.7 mph - N/A   Overcast
10:15 AM 24.8 °F 12.9 °F 21.2 °F 86% 29.95 in 10.0 mi East 13.8 mph - N/A   Overcast
10:35 AM 24.8 °F 11.5 °F 21.2 °F 86% 29.94 in 10.0 mi ENE 17.3 mph - N/A   Overcast
10:55 AM 24.8 °F 12.4 °F 21.2 °F 86% 29.94 in 9.0 mi East 15.0 mph 21.9 mph N/A   Overcast
11:15 AM 24.8 °F 13.4 °F 23.0 °F 93% 29.94 in 5.0 mi East 12.7 mph - N/A   Overcast
11:35 AM 24.8 °F 13.4 °F 23.0 °F 93% 29.93 in 6.0 mi East 12.7 mph 18.4 mph N/A   Overcast
11:55 AM 24.8 °F 14.0 °F 23.0 °F 93% 29.93 in 9.0 mi ENE 11.5 mph - N/A   Overcast
12:15 PM 24.8 °F 14.6 °F 23.0 °F 93% 29.91 in 2.5 mi East 10.4 mph - N/A   Overcast
12:35 PM 24.8 °F 12.4 °F 24.8 °F 100% 29.90 in 3.0 mi ENE 15.0 mph - N/A   Overcast
12:55 PM 24.8 °F 12.9 °F 24.8 °F 100% 29.88 in 6.0 mi East 13.8 mph - N/A   Overcast
1:15 PM 24.8 °F 11.9 °F 24.8 °F 100% 29.87 in 8.0 mi East 16.1 mph - 0.01 in   Overcast
1:35 PM 24.8 °F 12.4 °F 23.0 °F 93% 29.86 in 8.0 mi East 15.0 mph - 0.01 in   Overcast
1:55 PM 26.6 °F 16.2 °F 24.8 °F 93% 29.86 in 10.0 mi East 11.5 mph 20.7 mph 0.01 in   Overcast
2:15 PM 26.6 °F 14.3 °F 26.6 °F 100% 29.84 in 10.0 mi East 16.1 mph 20.7 mph N/A   Overcast
2:35 PM 26.6 °F 15.7 °F 26.6 °F 100% 29.85 in 10.0 mi East 12.7 mph 16.1 mph N/A   Overcast
2:55 PM 26.6 °F 16.2 °F 26.6 °F 100% 29.85 in 10.0 mi East 11.5 mph - N/A   Overcast
3:15 PM 26.6 °F 15.7 °F 24.8 °F 93% 29.84 in 10.0 mi East 12.7 mph - N/A   Overcast
3:35 PM 26.6 °F 14.3 °F 24.8 °F 93% 29.82 in 10.0 mi East 16.1 mph 20.7 mph N/A   Overcast
3:55 PM 26.6 °F 14.7 °F 26.6 °F 100% 29.82 in 10.0 mi East 15.0 mph 24.2 mph N/A   Overcast
4:15 PM 26.6 °F 15.2 °F 26.6 °F 100% 29.81 in 10.0 mi East 13.8 mph 23.0 mph N/A   Overcast
4:35 PM 28.4 °F 18.0 °F 28.4 °F 100% 29.80 in 8.0 mi East 12.7 mph 21.9 mph N/A   Overcast
4:55 PM 28.4 °F 16.2 °F 28.4 °F 100% 29.78 in 10.0 mi East 17.3 mph 26.5 mph N/A   Overcast
5:15 PM 28.4 °F 16.2 °F 28.4 °F 100% 29.76 in 8.0 mi East 17.3 mph 27.6 mph N/A   Overcast
5:35 PM 28.4 °F 15.4 °F 28.4 °F 100% 29.74 in 5.0 mi East 19.6 mph 25.3 mph N/A   Overcast
5:55 PM 28.4 °F 14.7 °F 26.6 °F 93% 29.73 in 2.5 mi East 21.9 mph 31.1 mph N/A   Overcast
6:15 PM 28.4 °F 14.7 °F 26.6 °F 93% 29.72 in 2.0 mi East 21.9 mph 28.8 mph N/A   Overcast
6:35 PM 28.4 °F 14.4 °F 28.4 °F 100% 29.70 in 1.8 mi East 23.0 mph 28.8 mph N/A   Overcast
6:55 PM 28.4 °F 15.1 °F 28.4 °F 100% 29.69 in 1.2 mi East 20.7 mph 27.6 mph N/A   Overcast
7:15 PM 28.4 °F 12.5 °F 28.4 °F 100% 29.67 in 1.0 mi ESE 31.1 mph 34.5 mph N/A   Overcast
7:35 PM 30.2 °F 14.5 °F 28.4 °F 93% 29.65 in 1.0 mi East 33.4 mph 42.6 mph N/A   Overcast
7:55 PM 30.2 °F 15.9 °F 30.2 °F 100% 29.62 in 1.8 mi East 26.5 mph 39.1 mph N/A   Overcast
8:15 PM 30.2 °F 15.2 °F 30.2 °F 100% 29.60 in 2.5 mi East 29.9 mph 40.3 mph N/A   Overcast
8:35 PM 30.2 °F 16.2 °F 30.2 °F 100% 29.59 in 4.0 mi East 25.3 mph 34.5 mph N/A   Overcast
8:55 PM 32.0 °F 17.6 °F 30.2 °F 93% 29.57 in 5.0 mi ESE 29.9 mph 42.6 mph 0.02 in   Overcast
9:15 PM 32.0 °F 17.4 °F 32.0 °F 100% 29.55 in 7.0 mi ESE 31.1 mph 39.1 mph 0.02 in   Overcast
9:35 PM 33.8 °F 19.9 °F 33.8 °F 100% 29.52 in 5.0 mi East 31.1 mph 39.1 mph 0.03 in   Overcast
9:55 PM 33.8 °F 21.0 °F 32.0 °F 93% 29.51 in 2.0 mi East 25.3 mph 33.4 mph 0.10 in   Overcast
10:15 PM 33.8 °F 20.3 °F 32.0 °F 93% 29.48 in 3.0 mi East 28.8 mph 34.5 mph 0.03 in   Overcast
10:35 PM 33.8 °F 20.8 °F 33.8 °F 100% 29.47 in 2.0 mi East 26.5 mph 35.7 mph 0.10 in   Overcast
10:55 PM 33.8 °F 21.0 °F 33.8 °F 100% 29.46 in 2.5 mi East 25.3 mph 39.1 mph 0.15 in   Overcast
11:15 PM 33.8 °F 21.3 °F 33.8 °F 100% 29.45 in 2.5 mi ESE 24.2 mph 28.8 mph 0.09 in   Overcast
11:35 PM 35.6 °F 24.8 °F 35.6 °F 100% 29.43 in 10.0 mi ESE 19.6 mph 26.5 mph 0.09 in   Overcast
11:55 PM 35.6 °F 24.8 °F 35.6 °F 100% 29.41 in 5.0 mi ESE 19.6 mph 32.2 mph 0.09 in   Overcast